Springs Airfield

Jump to: basic info | weather | frequencies | runways | comments

Related pages: nearby airports | nearby navaids | notams | map

Basic information (top)

Codes: FASI
Location: lon -26.249400, lat 28.398272, elev 5,340 ft / 1,628 m msl
Status: small_airport

Weather (top)

Current conditions (rec'd 2014/09/30 11:00Z):

FASI 301100Z AUTO /////KT //// // ////// 24/M15 Q1017

Airport forecast for OR Tambo International Airport 11nm (20km) NW (rec'd 2014/09/29 00:00Z):

TAF FAOR 292200Z 3000/0106 01008KT 9999 SCT040 PROB40 
      TEMPO 3000/3002 5000 TSRA FEW040CB BKN090 
      BECMG 3002/3004 28006KT 
      BECMG 3009/3011 26016KT 
      BECMG 3016/3018 20010KT 
      BECMG 3023/0101 14008KT TX23/3013ZTN13/3004Z

Frequencies (top)

Verify before use: may be inaccurate or out of date.

RDO: 122.4 MHz (RDO)

Runways (top)

03/21: 5,249 x 59 ft (1,600 x 18 m) — paved — lighted — threshold 03 displaced 820 ft (250 m) — threshold 21 displaced 580 ft (177 m)

04/22: size unknown — other (Grass) — not lighted

14/32: 1,818 x 70 ft (554 x 21 m) — grass — not lighted

Latest comments (top)

challenger aircraft: I am trying to locate a gentleman by ... [read]

Operated by the East Rand Flying Club: The East Rand Flying Club operates ... [read]

More... (top)

See also NOTAMs and nearby airports and navaids, or visit the Springs Airfield page at the main OurAirports website..